QPF
0.01 0.01 0.00 0.00 0.01 0.01 0.01 0.01 0.01 0.01 0.01 0.02 0.05 0.04 0.04 0.04 0.05 0.07 0.08 0.10 0.12 0.11 0.10 0.07 0.04 0.02 0.02 0.02 0.02 0.02 0.02 0.03 0.03 0.02 0.01 0.01 0.01 0.01 0.01 0.01 0.02 0.02 0.02
0.01 0.01 0.01 0.01 0.01 0.01 0.01 0.01 0.01 0.01 0.02 0.02 0.03 0.02 0.02 0.02 0.04 0.05 0.06 0.07 0.08 0.07 0.07 0.06 0.06 0.04 0.02 0.02 0.02 0.02 0.02 0.02 0.02 0.02 0.01 0.01 0.02 0.02 0.02 0.02 0.02 0.02 0.02
0.00 0.00 0.01 0.01 0.00 0.00 0.01 0.01 0.01 0.01 0.01 0.01 0.01 0.02 0.02 0.02 0.02 0.03 0.04 0.05 0.05 0.05 0.04 0.03 0.03 0.02 0.02 0.01 0.01 0.02 0.03 0.03 0.03 0.03 0.02 0.02 0.02 0.02 0.03 0.03 0.03 0.02 0.02
0.00 0.00 0.00 0.01 0.00 0.00 0.01 0.01 0.01 0.01 0.01 0.01 0.01 0.02 0.02 0.02 0.02 0.02 0.03 0.03 0.03 0.03 0.03 0.02 0.02 0.01 0.01 0.01 0.01 0.01 0.02 0.03 0.05 0.05 0.05 0.04 0.03 0.03 0.03 0.04 0.03 0.03 0.02
0.01 0.00 0.00 0.00 0.01 0.01 0.01 0.01 0.01 0.01 0.01 0.01 0.02 0.02 0.02 0.02 0.02 0.02 0.02 0.02 0.02 0.02 0.02 0.01 0.01 0.01 0.01 0.01 0.01 0.01 0.01 0.02 0.03 0.04 0.04 0.04 0.03 0.03 0.03 0.03 0.03 0.03 0.02
0.01 0.01 0.01 0.01 0.01 0.01 0.01 0.01 0.01 0.01 0.01 0.01 0.02 0.02 0.02 0.02 0.02 0.02 0.02 0.02 0.02 0.02 0.01 0.01 0.01 0.01 0.02 0.02 0.02 0.02 0.02 0.02 0.02 0.03 0.03 0.03 0.02 0.02 0.02 0.02 0.02 0.02 0.02
0.01 0.01 0.01 0.01 0.01 0.01 0.01 0.01 0.01 0.01 0.02 0.02 0.02 0.02 0.02 0.02 0.02 0.02 0.02 0.02 0.02 0.02 0.02 0.02 0.02 0.02 0.02 0.02 0.02 0.02 0.01 0.01 0.01 0.02 0.02 0.02 0.02 0.02 0.02 0.02 0.02 0.01 0.02
0.01 0.01 0.01 0.01 0.01 0.01 0.01 0.02 0.01 0.01 0.02 0.02 0.02 0.02 0.03 0.03 0.03 0.02 0.02 0.02 0.02 0.02 0.02 0.02 0.02 0.02 0.02 0.02 0.01 0.01 0.01 0.01 0.01 0.01 0.01 0.02 0.02 0.02 0.02 0.02 0.02 0.02 0.02
0.01 0.01 0.01 0.01 0.01 0.02 0.02 0.02 0.03 0.03 0.04 0.04 0.03 0.03 0.03 0.04 0.03 0.03 0.03 0.03 0.03 0.03 0.02 0.02 0.02 0.02 0.02 0.02 0.02 0.02 0.01 0.01 0.01 0.01 0.01 0.02 0.03 0.04 0.04 0.04 0.04 0.04 0.03
0.01 0.01 0.01 0.01 0.01 0.02 0.02 0.02 0.03 0.03 0.04 0.05 0.05 0.05 0.05 0.04 0.04 0.04 0.04 0.03 0.03 0.03 0.02 0.02 0.02 0.02 0.02 0.02 0.02 0.02 0.02 0.01 0.01 0.02 0.02 0.02 0.03 0.04 0.05 0.05 0.04 0.04 0.03
0.01 0.01 0.01 0.01 0.01 0.02 0.02 0.02 0.02 0.03 0.03 0.03 0.04 0.03 0.03 0.03 0.03 0.03 0.03 0.03 0.02 0.02 0.01 0.01 0.02 0.02 0.02 0.02 0.02 0.02 0.02 0.02 0.02 0.03 0.03 0.03 0.04 0.04 0.05 0.05 0.05 0.04 0.03
0.01 0.01 0.01 0.01 0.01 0.02 0.02 0.02 0.02 0.03 0.03 0.04 0.03 0.03 0.02 0.02 0.02 0.02 0.02 0.02 0.02 0.02 0.02 0.01 0.01 0.02 0.02 0.02 0.02 0.03 0.03 0.04 0.04 0.04 0.04 0.04 0.04 0.04 0.04 0.04 0.04 0.03 0.03
0.01 0.01 0.01 0.01 0.01 0.02 0.02 0.02 0.03 0.04 0.04 0.04 0.03 0.03 0.02 0.02 0.02 0.02 0.02 0.02 0.03 0.03 0.03 0.03 0.03 0.03 0.04 0.03 0.03 0.04 0.04 0.04 0.05 0.05 0.05 0.04 0.04 0.04 0.04 0.03 0.03 0.03 0.02
0.01 0.01 0.01 0.01 0.01 0.01 0.02 0.03 0.03 0.04 0.03 0.04 0.04 0.03 0.03 0.03 0.02 0.03 0.03 0.03 0.03 0.03 0.03 0.03 0.04 0.04 0.04 0.04 0.04 0.04 0.04 0.04 0.04 0.04 0.04 0.04 0.04 0.03 0.03 0.03 0.03 0.02 0.02
0.01 0.01 0.01 0.01 0.01 0.01 0.02 0.02 0.03 0.03 0.03 0.03 0.04 0.04 0.03 0.03 0.03 0.03 0.03 0.03 0.03 0.03 0.03 0.03 0.04 0.04 0.04 0.04 0.04 0.03 0.03 0.04 0.04 0.04 0.04 0.04 0.04 0.04 0.04 0.03 0.03 0.02 0.02
0.02 0.01 0.01 0.01 0.01 0.01 0.02 0.02 0.02 0.02 0.02 0.02 0.02 0.03 0.03 0.03 0.03 0.03 0.03 0.03 0.04 0.04 0.04 0.04 0.03 0.03 0.03 0.03 0.03 0.03 0.03 0.03 0.03 0.04 0.04 0.04 0.04 0.04 0.04 0.03 0.03 0.02 0.02
0.01 0.01 0.01 0.01 0.01 0.02 0.02 0.02 0.01 0.01 0.01 0.01 0.01 0.02 0.03 0.03 0.03 0.03 0.03 0.03 0.04 0.04 0.04 0.03 0.02 0.02 0.02 0.02 0.02 0.02 0.03 0.03 0.04 0.04 0.04 0.04 0.03 0.03 0.03 0.03 0.03 0.03 0.02
0.01 0.01 0.01 0.01 0.02 0.02 0.02 0.02 0.01 0.02 0.02 0.02 0.02 0.02 0.02 0.02 0.03 0.03 0.03 0.04 0.04 0.04 0.03 0.02 0.02 0.02 0.02 0.02 0.03 0.03 0.03 0.04 0.04 0.04 0.04 0.03 0.03 0.03 0.03 0.03 0.03 0.02 0.02
0.01 0.01 0.01 0.01 0.01 0.01 0.01 0.01 0.02 0.02 0.02 0.02 0.02 0.02 0.02 0.02 0.02 0.02 0.03 0.03 0.03 0.03 0.03 0.03 0.03 0.02 0.02 0.03 0.03 0.03 0.04 0.04 0.04 0.04 0.03 0.03 0.03 0.03 0.03 0.02 0.02 0.02 0.02
0.01 0.01 0.02 0.02 0.01 0.01 0.01 0.01 0.02 0.02 0.02 0.02 0.02 0.02 0.01 0.02 0.02 0.02 0.02 0.02 0.02 0.02 0.02 0.02 0.02 0.03 0.03 0.03 0.03 0.04 0.04 0.04 0.03 0.03 0.03 0.02 0.02 0.03 0.03 0.02 0.02 0.02 0.02
0.01 0.02 0.02 0.01 0.01 0.01 0.01 0.02 0.02 0.02 0.02 0.02 0.02 0.02 0.02 0.02 0.02 0.01 0.01 0.01 0.02 0.02 0.02 0.02 0.02 0.02 0.03 0.03 0.03 0.03 0.04 0.04 0.03 0.03 0.03 0.02 0.03 0.03 0.03 0.02 0.02 0.02 0.01
0.02 0.02 0.02 0.02 0.01 0.01 0.02 0.02 0.01 0.02 0.02 0.02 0.02 0.01 0.02 0.02 0.02 0.02 0.02 0.02 0.02 0.02 0.02 0.02 0.02 0.02 0.03 0.03 0.03 0.03 0.03 0.03 0.03 0.03 0.03 0.03 0.03 0.03 0.03 0.02 0.02 0.02 0.02
0.02 0.02 0.01 0.01 0.01 0.01 0.02 0.02 0.02 0.02 0.02 0.02 0.02 0.02 0.02 0.02 0.02 0.02 0.02 0.02 0.02 0.02 0.02 0.02 0.03 0.03 0.03 0.03 0.03 0.03 0.03 0.03 0.02 0.02 0.02 0.03 0.03 0.03 0.03 0.02 0.02 0.02 0.02
0.01 0.01 0.01 0.01 0.01 0.01 0.02 0.02 0.02 0.02 0.02 0.02 0.02 0.02 0.02 0.02 0.02 0.02 0.02 0.02 0.02 0.02 0.02 0.02 0.02 0.02 0.03 0.03 0.03 0.03 0.03 0.03 0.02 0.02 0.02 0.03 0.03 0.03 0.03 0.02 0.02 0.02 0.01
0.01 0.01 0.01 0.01 0.02 0.02 0.02 0.02 0.02 0.02 0.02 0.02 0.02 0.02 0.02 0.02 0.02 0.01 0.02 0.02 0.02 0.02 0.02 0.02 0.02 0.02 0.03 0.03 0.03 0.03 0.03 0.03 0.03 0.03 0.03 0.03 0.02 0.02 0.02 0.03 0.02 0.02 0.01
0.01 0.01 0.01 0.02 0.02 0.02 0.02 0.02 0.02 0.02 0.02 0.02 0.02 0.02 0.02 0.02 0.02 0.02 0.02 0.02 0.02 0.02 0.02 0.02 0.02 0.02 0.03 0.03 0.03 0.03 0.03 0.03 0.03 0.03 0.03 0.03 0.02 0.02 0.02 0.02 0.03 0.03 0.02
MSLP
1015.99 1016.58 1017.18 1017.75 1018.22 1018.59 1018.85 1019.02 1019.14 1019.22 1019.29 1019.35 1019.38 1019.39 1019.36 1019.27 1019.14 1018.97 1018.79 1018.62 1018.47 1018.34 1018.23 1018.11 1017.95 1017.72 1017.38 1016.93 1016.35 1015.69 1014.96 1014.22 1013.51 1012.87 1012.34 1011.92 1011.63 1011.46 1011.41 1011.46 1011.63 1011.90 1012.29
1015.22 1015.83 1016.47 1017.07 1017.58 1017.97 1018.25 1018.44 1018.56 1018.64 1018.71 1018.77 1018.80 1018.81 1018.77 1018.68 1018.52 1018.32 1018.10 1017.85 1017.62 1017.40 1017.21 1017.01 1016.80 1016.54 1016.22 1015.82 1015.33 1014.78 1014.17 1013.55 1012.94 1012.37 1011.88 1011.47 1011.15 1010.93 1010.83 1010.83 1010.96 1011.22 1011.63
1014.35 1015.01 1015.69 1016.32 1016.86 1017.28 1017.58 1017.78 1017.90 1017.99 1018.04 1018.09 1018.11 1018.11 1018.06 1017.96 1017.78 1017.55 1017.28 1016.98 1016.67 1016.37 1016.09 1015.83 1015.56 1015.29 1014.98 1014.63 1014.23 1013.78 1013.30 1012.79 1012.29 1011.80 1011.35 1010.95 1010.62 1010.37 1010.23 1010.20 1010.32 1010.60 1011.06
1013.43 1014.12 1014.84 1015.51 1016.07 1016.51 1016.82 1017.03 1017.15 1017.22 1017.26 1017.28 1017.29 1017.27 1017.20 1017.07 1016.87 1016.61 1016.30 1015.95 1015.59 1015.23 1014.89 1014.57 1014.27 1013.99 1013.70 1013.41 1013.09 1012.74 1012.37 1011.97 1011.56 1011.14 1010.73 1010.34 1010.00 1009.74 1009.58 1009.56 1009.70 1010.03 1010.56
1012.52 1013.24 1013.97 1014.65 1015.23 1015.68 1015.99 1016.19 1016.30 1016.35 1016.36 1016.36 1016.33 1016.27 1016.16 1016.00 1015.78 1015.49 1015.14 1014.76 1014.36 1013.96 1013.59 1013.24 1012.94 1012.66 1012.41 1012.17 1011.93 1011.67 1011.39 1011.07 1010.73 1010.36 1009.98 1009.61 1009.27 1009.01 1008.86 1008.86 1009.05 1009.45 1010.09
1011.71 1012.43 1013.15 1013.82 1014.38 1014.81 1015.11 1015.29 1015.38 1015.40 1015.38 1015.33 1015.25 1015.14 1014.99 1014.78 1014.51 1014.19 1013.82 1013.41 1012.99 1012.58 1012.20 1011.86 1011.57 1011.32 1011.11 1010.92 1010.74 1010.55 1010.33 1010.08 1009.79 1009.45 1009.09 1008.73 1008.40 1008.15 1008.03 1008.08 1008.35 1008.85 1009.61
1011.06 1011.75 1012.44 1013.06 1013.58 1013.97 1014.23 1014.38 1014.43 1014.41 1014.34 1014.23 1014.09 1013.92 1013.70 1013.44 1013.12 1012.76 1012.36 1011.94 1011.52 1011.12 1010.75 1010.44 1010.17 1009.96 1009.79 1009.65 1009.52 1009.38 1009.20 1008.99 1008.72 1008.41 1008.06 1007.72 1007.41 1007.19 1007.11 1007.23 1007.59 1008.20 1009.08
1010.64 1011.26 1011.87 1012.42 1012.86 1013.18 1013.39 1013.48 1013.48 1013.41 1013.28 1013.11 1012.90 1012.65 1012.36 1012.03 1011.67 1011.26 1010.84 1010.41 1010.00 1009.61 1009.28 1008.99 1008.76 1008.59 1008.46 1008.35 1008.25 1008.14 1007.99 1007.79 1007.53 1007.23 1006.91 1006.58 1006.31 1006.14 1006.13 1006.33 1006.78 1007.50 1008.50
1010.42 1010.95 1011.46 1011.89 1012.23 1012.47 1012.59 1012.61 1012.55 1012.41 1012.22 1011.98 1011.69 1011.37 1011.01 1010.61 1010.19 1009.75 1009.30 1008.87 1008.47 1008.11 1007.80 1007.55 1007.36 1007.22 1007.11 1007.03 1006.94 1006.83 1006.69 1006.49 1006.25 1005.97 1005.67 1005.38 1005.16 1005.05 1005.12 1005.41 1005.95 1006.76 1007.85
1010.37 1010.79 1011.16 1011.46 1011.68 1011.79 1011.82 1011.75 1011.61 1011.41 1011.14 1010.83 1010.47 1010.08 1009.65 1009.19 1008.72 1008.25 1007.79 1007.35 1006.97 1006.63 1006.35 1006.14 1005.97 1005.85 1005.76 1005.68 1005.59 1005.47 1005.32 1005.13 1004.90 1004.64 1004.38 1004.15 1004.00 1003.97 1004.13 1004.51 1005.14 1006.03 1007.18
1010.40 1010.69 1010.92 1011.08 1011.15 1011.14 1011.04 1010.88 1010.65 1010.37 1010.03 1009.65 1009.22 1008.76 1008.28 1007.77 1007.26 1006.77 1006.30 1005.88 1005.51 1005.20 1004.95 1004.76 1004.61 1004.50 1004.40 1004.31 1004.20 1004.07 1003.91 1003.71 1003.49 1003.27 1003.06 1002.91 1002.85 1002.92 1003.18 1003.65 1004.36 1005.31 1006.50
1010.44 1010.60 1010.67 1010.67 1010.59 1010.44 1010.23 1009.95 1009.63 1009.26 1008.85 1008.40 1007.91 1007.40 1006.87 1006.33 1005.80 1005.30 1004.84 1004.43 1004.09 1003.81 1003.58 1003.40 1003.26 1003.14 1003.03 1002.91 1002.77 1002.62 1002.44 1002.24 1002.05 1001.87 1001.73 1001.67 1001.71 1001.90 1002.26 1002.83 1003.61 1004.61 1005.83
1010.41 1010.42 1010.35 1010.19 1009.96 1009.67 1009.32 1008.94 1008.52 1008.07 1007.58 1007.07 1006.52 1005.97 1005.40 1004.84 1004.31 1003.81 1003.37 1002.99 1002.68 1002.43 1002.22 1002.06 1001.91 1001.78 1001.63 1001.48 1001.30 1001.11 1000.92 1000.72 1000.56 1000.43 1000.38 1000.41 1000.58 1000.89 1001.36 1002.03 1002.89 1003.93 1005.16
1010.23 1010.11 1009.89 1009.59 1009.21 1008.79 1008.32 1007.83 1007.31 1006.77 1006.22 1005.64 1005.05 1004.45 1003.86 1003.30 1002.77 1002.29 1001.88 1001.54 1001.25 1001.03 1000.84 1000.68 1000.53 1000.37 1000.19 999.99 999.77 999.55 999.33 999.15 999.01 998.94 998.97 999.12 999.41 999.84 1000.44 1001.21 1002.15 1003.25 1004.50
1009.88 1009.64 1009.28 1008.85 1008.35 1007.80 1007.23 1006.63 1006.03 1005.41 1004.78 1004.14 1003.50 1002.87 1002.27 1001.70 1001.18 1000.72 1000.34 1000.03 999.78 999.58 999.41 999.26 999.09 998.90 998.68 998.44 998.18 997.92 997.69 997.50 997.40 997.39 997.51 997.77 998.18 998.76 999.48 1000.36 1001.39 1002.55 1003.84
1009.34 1008.99 1008.52 1007.98 1007.38 1006.74 1006.07 1005.39 1004.71 1004.01 1003.31 1002.62 1001.93 1001.26 1000.63 1000.05 999.54 999.10 998.74 998.46 998.24 998.06 997.90 997.74 997.56 997.34 997.09 996.81 996.51 996.23 995.98 995.81 995.74 995.80 996.01 996.38 996.91 997.62 998.47 999.47 1000.61 1001.85 1003.19
1008.63 1008.18 1007.63 1007.01 1006.34 1005.63 1004.90 1004.16 1003.40 1002.64 1001.88 1001.12 1000.38 999.66 999.00 998.40 997.87 997.43 997.08 996.81 996.60 996.44 996.28 996.12 995.92 995.69 995.42 995.11 994.79 994.50 994.26 994.11 994.08 994.21 994.50 994.98 995.64 996.47 997.45 998.58 999.82 1001.15 1002.56
1007.76 1007.25 1006.65 1005.99 1005.28 1004.53 1003.76 1002.97 1002.16 1001.34 1000.51 999.68 998.88 998.10 997.39 996.74 996.19 995.73 995.37 995.09 994.88 994.71 994.56 994.39 994.20 993.96 993.68 993.37 993.06 992.78 992.56 992.45 992.48 992.68 993.07 993.65 994.42 995.37 996.48 997.72 999.08 1000.51 1002.00
1006.77 1006.22 1005.60 1004.93 1004.21 1003.46 1002.67 1001.85 1001.00 1000.13 999.23 998.34 997.45 996.60 995.82 995.11 994.50 994.00 993.60 993.30 993.08 992.90 992.74 992.58 992.39 992.17 991.91 991.63 991.35 991.12 990.96 990.91 991.02 991.30 991.78 992.47 993.35 994.41 995.62 996.97 998.43 999.95 1001.53
1005.71 1005.14 1004.53 1003.87 1003.17 1002.43 1001.64 1000.81 999.93 999.00 998.04 997.07 996.10 995.16 994.29 993.50 992.81 992.24 991.79 991.46 991.20 991.01 990.86 990.71 990.55 990.37 990.16 989.94 989.74 989.59 989.52 989.56 989.77 990.15 990.73 991.51 992.49 993.64 994.95 996.38 997.92 999.52 1001.17
1004.60 1004.05 1003.46 1002.84 1002.17 1001.46 1000.68 999.84 998.93 997.95 996.92 995.86 994.80 993.76 992.79 991.90 991.13 990.49 989.98 989.59 989.31 989.11 988.96 988.84 988.73 988.62 988.50 988.38 988.29 988.25 988.30 988.47 988.79 989.28 989.96 990.84 991.89 993.12 994.49 995.98 997.57 999.22 1000.91
1003.50 1002.97 1002.42 1001.84 1001.21 1000.52 999.76 998.91 997.96 996.94 995.84 994.69 993.53 992.40 991.32 990.34 989.48 988.76 988.18 987.75 987.45 987.25 987.12 987.05 987.02 986.99 986.99 987.00 987.05 987.16 987.35 987.67 988.11 988.72 989.50 990.46 991.58 992.85 994.26 995.77 997.37 999.03 1000.73
1002.44 1001.94 1001.43 1000.88 1000.29 999.62 998.86 997.99 997.02 995.93 994.76 993.54 992.29 991.06 989.89 988.83 987.89 987.10 986.48 986.02 985.71 985.52 985.44 985.44 985.49 985.59 985.72 985.88 986.09 986.36 986.71 987.17 987.75 988.47 989.34 990.36 991.52 992.81 994.22 995.73 997.31 998.95 1000.63
1001.44 1000.97 1000.48 999.97 999.39 998.73 997.97 997.08 996.06 994.93 993.70 992.40 991.08 989.78 988.55 987.42 986.43 985.60 984.95 984.48 984.19 984.04 984.01 984.09 984.25 984.47 984.75 985.06 985.43 985.87 986.37 986.97 987.67 988.48 989.42 990.48 991.66 992.95 994.34 995.80 997.34 998.93 1000.55
1000.53 1000.06 999.59 999.09 998.52 997.85 997.07 996.16 995.10 993.93 992.65 991.31 989.94 988.60 987.33 986.17 985.16 984.33 983.68 983.23 982.97 982.88 982.93 983.10 983.36 983.71 984.12 984.58 985.10 985.67 986.31 987.02 987.82 988.71 989.69 990.77 991.94 993.20 994.55 995.96 997.43 998.95 1000.51
999.68 999.21 998.74 998.23 997.65 996.97 996.17 995.23 994.15 992.95 991.65 990.29 988.91 987.56 986.29 985.15 984.16 983.35 982.74 982.34 982.14 982.11 982.24 982.50 982.87 983.33 983.85 984.44 985.07 985.76 986.49 987.29 988.15 989.08 990.08 991.16 992.31 993.53 994.81 996.16 997.56 999.01 1000.50
Thickness
5485 5484 5483 5482 5481 5479 5477 5476 5475 5473 5472 5471 5470 5468 5467 5466 5466 5464 5464 5463 5463 5463 5462 5462 5462 5462 5462 5461 5461 5461 5460 5460 5461 5463 5462 5463 5463 5464 5465 5465 5466 5466 5466
5475 5474 5473 5472 5471 5469 5468 5467 5466 5465 5463 5462 5461 5460 5459 5458 5458 5456 5455 5455 5455 5454 5454 5453 5453 5452 5453 5452 5451 5451 5451 5451 5451 5452 5453 5452 5453 5453 5454 5454 5455 5456 5456
5464 5464 5463 5462 5461 5460 5460 5459 5457 5456 5455 5454 5453 5452 5452 5451 5449 5449 5448 5447 5447 5447 5446 5445 5445 5444 5444 5443 5443 5442 5442 5442 5442 5442 5443 5443 5442 5443 5443 5444 5445 5446 5446
5453 5453 5453 5453 5452 5452 5451 5451 5450 5448 5447 5446 5445 5445 5444 5443 5442 5441 5440 5440 5439 5439 5439 5438 5437 5437 5437 5436 5435 5434 5434 5433 5433 5432 5433 5433 5433 5433 5432 5433 5435 5436 5436
5442 5443 5444 5444 5444 5443 5442 5442 5441 5440 5439 5438 5438 5437 5437 5436 5435 5434 5434 5433 5432 5432 5431 5431 5431 5430 5430 5429 5428 5427 5426 5425 5424 5424 5424 5424 5424 5423 5424 5424 5425 5426 5426
5432 5433 5434 5434 5434 5434 5434 5433 5432 5431 5430 5430 5430 5430 5429 5429 5429 5429 5428 5426 5426 5425 5425 5424 5424 5424 5423 5422 5421 5420 5419 5418 5417 5417 5417 5416 5417 5417 5416 5415 5415 5415 5416
5422 5423 5425 5425 5425 5425 5425 5425 5423 5423 5422 5422 5422 5422 5422 5423 5423 5422 5421 5420 5419 5419 5418 5418 5418 5418 5416 5415 5414 5413 5412 5413 5413 5412 5411 5411 5411 5411 5409 5407 5406 5406 5406
5412 5414 5415 5416 5416 5416 5416 5416 5415 5414 5414 5414 5414 5415 5415 5416 5416 5416 5415 5413 5413 5412 5412 5412 5411 5410 5409 5408 5407 5406 5405 5405 5406 5406 5406 5406 5405 5403 5402 5401 5399 5398 5397
5403 5405 5406 5406 5407 5407 5408 5407 5407 5407 5407 5407 5408 5408 5408 5409 5409 5409 5408 5407 5406 5405 5405 5404 5404 5403 5403 5401 5400 5399 5399 5399 5399 5399 5399 5398 5397 5396 5394 5392 5391 5390 5390
5395 5396 5397 5398 5398 5399 5399 5399 5399 5400 5400 5401 5401 5401 5401 5402 5403 5403 5402 5400 5399 5398 5397 5396 5396 5396 5396 5395 5394 5393 5392 5392 5391 5391 5390 5390 5389 5388 5387 5386 5384 5382 5380
5387 5388 5389 5389 5390 5390 5390 5391 5391 5392 5393 5393 5394 5394 5394 5395 5395 5396 5395 5393 5392 5390 5389 5389 5389 5389 5389 5389 5388 5387 5387 5385 5383 5382 5381 5381 5381 5380 5379 5378 5377 5375 5373
5379 5380 5380 5380 5381 5382 5382 5383 5384 5384 5385 5385 5385 5386 5387 5387 5387 5387 5387 5386 5385 5383 5383 5382 5382 5382 5382 5381 5381 5381 5380 5377 5376 5375 5374 5374 5374 5373 5372 5371 5369 5367 5366
5369 5370 5371 5372 5372 5374 5374 5375 5376 5376 5377 5378 5378 5379 5379 5379 5379 5379 5379 5379 5377 5376 5376 5376 5376 5375 5374 5373 5373 5373 5371 5369 5368 5368 5368 5367 5367 5366 5364 5362 5360 5358 5357
5360 5361 5362 5363 5364 5365 5367 5368 5369 5369 5369 5370 5371 5371 5372 5372 5371 5371 5370 5370 5370 5369 5368 5368 5368 5367 5366 5365 5365 5364 5363 5361 5361 5361 5360 5359 5358 5357 5356 5354 5352 5350 5349
5352 5353 5354 5355 5356 5357 5358 5359 5360 5362 5362 5363 5364 5364 5364 5364 5365 5364 5363 5363 5362 5361 5360 5359 5358 5358 5358 5358 5357 5356 5355 5354 5353 5353 5352 5351 5350 5349 5348 5346 5344 5343 5342
5343 5345 5346 5346 5347 5348 5349 5351 5353 5354 5356 5357 5357 5357 5357 5357 5358 5358 5357 5356 5356 5355 5353 5351 5351 5351 5350 5350 5349 5348 5348 5347 5346 5346 5345 5344 5343 5342 5341 5339 5337 5336 5335
5334 5336 5338 5339 5339 5340 5341 5342 5344 5345 5346 5348 5349 5349 5349 5350 5350 5350 5350 5349 5348 5348 5346 5345 5344 5344 5343 5343 5342 5342 5341 5340 5340 5339 5339 5338 5337 5336 5334 5333 5331 5329 5328
5327 5329 5330 5331 5332 5332 5333 5334 5334 5335 5336 5337 5339 5340 5341 5341 5342 5342 5341 5341 5339 5339 5338 5338 5337 5337 5337 5336 5335 5335 5334 5334 5333 5333 5333 5332 5331 5330 5328 5327 5325 5323 5322
5320 5321 5322 5323 5323 5324 5324 5325 5325 5326 5327 5328 5329 5330 5331 5332 5332 5333 5333 5332 5331 5331 5330 5330 5330 5330 5330 5329 5329 5328 5328 5328 5327 5327 5327 5326 5325 5324 5323 5321 5319 5318 5317
5313 5315 5316 5316 5316 5316 5316 5316 5317 5317 5318 5319 5320 5321 5321 5322 5322 5323 5323 5323 5323 5323 5324 5324 5324 5324 5323 5323 5323 5323 5322 5322 5322 5322 5321 5321 5320 5319 5318 5316 5314 5313 5312
5307 5308 5309 5309 5308 5309 5309 5309 5309 5310 5310 5311 5312 5313 5314 5314 5314 5314 5315 5315 5316 5317 5317 5318 5318 5318 5318 5318 5318 5317 5317 5317 5317 5316 5316 5315 5314 5313 5312 5311 5309 5308 5306
5300 5301 5301 5301 5302 5302 5302 5301 5301 5302 5303 5304 5305 5306 5308 5307 5307 5308 5309 5310 5310 5311 5312 5313 5313 5314 5314 5314 5314 5313 5313 5313 5313 5312 5311 5310 5309 5308 5307 5306 5305 5304 5302
5294 5294 5295 5295 5295 5296 5296 5295 5295 5296 5296 5298 5299 5300 5301 5301 5302 5303 5304 5305 5306 5307 5308 5308 5309 5310 5310 5310 5310 5310 5310 5310 5309 5309 5307 5306 5305 5304 5303 5302 5301 5300 5299
5287 5288 5288 5288 5289 5289 5289 5290 5290 5290 5291 5292 5293 5294 5295 5296 5298 5299 5300 5301 5302 5303 5304 5305 5306 5306 5306 5307 5307 5307 5307 5307 5306 5305 5304 5303 5302 5300 5300 5299 5298 5297 5296
5281 5282 5282 5282 5283 5283 5284 5285 5285 5286 5286 5287 5288 5289 5291 5292 5294 5296 5297 5298 5299 5300 5301 5301 5302 5303 5304 5304 5304 5304 5304 5304 5303 5302 5301 5300 5298 5297 5296 5295 5294 5293 5293
5275 5276 5276 5277 5278 5278 5279 5280 5281 5282 5282 5283 5284 5285 5286 5288 5290 5291 5293 5294 5295 5296 5297 5298 5299 5300 5300 5301 5302 5302 5301 5301 5301 5300 5298 5297 5295 5294 5293 5292 5291 5290 5289